Regional Weather Roundup
Issued by NWS Upton, NY

Current Version | Previous Version | Text Only | Print | Product List | Glossary On
Versions: 1 2 3 4 5 6 7 8 9 10 11 12 13 14 15 16 17 18 19 20 21 22 23 24 25 26 27 28 29 30 31 32 33 34 35 36 37 38 39 40 41 42 43 44 45 46 47 48 49 50
000
ASUS41 KOKX 220605
RWROKX

Regional Weather Roundup
National Weather Service New York NY
100 AM EST THU FEB 22 2018

Note: "FAIR" indicates few or no clouds below 12,000 feet with no
significant weather and/or obstructions to visibility.

NYZ071-072-176-178-NJZ106-104-220700-
New York City Metro Area

CITY           SKY/WX    TMP DP  RH WIND       PRES   REMARKS
Central Park   CLOUDY    58  47  66 VRB5      30.45R
Bronx Bot Gard   N/A     55  43  62 NE6       30.44R
Bronx Lehman C   N/A     55  39  54 N7          N/A
LaGuardia Arpt LGT RAIN  57  44  62 N10       30.42R
Queens College   N/A     57  43  58 NE9         N/A
Kennedy Intl   CLOUDY    57  48  72 N10       30.42R
Breezy Point     N/A     57 N/A N/A N9          N/A
Brooklyn Coll    N/A     59  46  63 N14         N/A
Staten Island    N/A     57  45  62 N6          N/A
Newark/Liberty LGT RAIN  57  41  55 N15       30.43R
Teterboro      LGT RAIN  57  42  57 N9        30.42R
$$

NYZ177-179-078>081-220700-
Long Island New York

CITY           SKY/WX    TMP DP  RH WIND       PRES   REMARKS
Jones Beach      N/A     55 N/A N/A N7          N/A
Wantagh          N/A     55  45  67 N7          N/A
Hempstead        N/A     57  41  54 N3        30.44R
Matinecock Pt    N/A     52 N/A N/A N14         N/A
Farmingdale    CLOUDY    55  43  63 N9        30.41R
MacArthur/ISP  LGT RAIN  55  43  63 N7        30.41R
Shirley        CLOUDY    56  43  61 N10       30.41R
Mt Sinai Harb    N/A     45 N/A N/A MISG        N/A
Westhampton    CLOUDY    56  44  64 N7        30.42R
East Hampton   CLOUDY    53  48  83 N5        30.40R
Southold         N/A     52  43  71 N9          N/A
Montauk          N/A     53  49  86 NW9       30.41R
$$

NYZ052-065-067-220700-
Hudson Valley

CITY           SKY/WX    TMP DP  RH WIND       PRES   REMARKS
White Plains   MOCLDY    53  32  44 N7        30.42R
Larchmont Harb   N/A     55 N/A N/A N14         N/A
Croton On Huds   N/A     54 N/A N/A N9G15       N/A
Somers           N/A     48  34  57 N7          N/A
Brewster         N/A     46  36  66 N10         N/A
Newburgh       CLOUDY    50  37  62 N13       30.47R
Montgomery     CLOUDY    49  36  61 NE13      30.46R
Otisville        N/A     45  32  61 N3          N/A
Warwick          N/A     48  34  57 NW7         N/A
Suffern          N/A     54  39  58 N5          N/A
Poughkeepsie   CLOUDY    47  34  60 N13       30.48R
Albany         CLOUDY    39  32  76 NW8       30.53S WCI  33
$$

NJZ001-105-106-008-010-013-015-019>022-104-220700-
New Jersey

CITY           SKY/WX    TMP DP  RH WIND       PRES   REMARKS
Newark/Liberty LGT RAIN  57  41  55 N15       30.43R
Teterboro      LGT RAIN  57  42  57 N9        30.42R
Caldwell       CLOUDY    54  36  50 N5        30.45R
Somerville     CLOUDY    53  37  54 N9        30.43R
Linden         CLOUDY    57  42  57 N7        30.43R
Perth Amboy      N/A     57 N/A N/A NW8         N/A
Sussex         CLOUDY    48  37  65 CALM      30.47R
Andover          N/A     47  35  63 N6G18     30.46R
Trenton        CLOUDY    56  44  64 N8        30.43R
Millville      FAIR      62  55  77 N15       30.39R
Atlantic City  CLOUDY    63  59  87 N8        30.40R
Wrightstown    CLOUDY    57  47  68 NW7       30.40
Toms River     CLOUDY    60  51  72 N6        30.43R
Belmar         CLOUDY    59  49  69 NW6       30.43R
$$

PAZ047>061-062-071-220700-
Eastern Pennsylvania

CITY           SKY/WX    TMP DP  RH WIND       PRES   REMARKS
Philadelphia   CLOUDY    57  46  66 N14       30.43R
Allentown      CLOUDY    52  35  52 N6        30.46R
Scranton       CLOUDY    41  35  79 NE8       30.52R
$$

CTZ002-004>006-009-010-012-RIZ004-006-007-MAZ004-011-015-220700-
Southern New England

 In CT

CITY           SKY/WX    TMP DP  RH WIND       PRES   REMARKS
Bradley Intl   MOCLDY    50  39  66 NW15      30.47R
Hartford       CLOUDY    53  41  63 N10       30.45R
Danbury        CLOUDY    49  37  63 NE10      30.47R
Wtrbury/Oxford CLOUDY    48  39  71 N13       30.45R
Norwalk Harbor   N/A     52 N/A N/A NW14        N/A
Bridgeport     CLOUDY    56  38  50 N9        30.42R
Meriden        CLOUDY    52  40  63 N12       30.44R
New Haven      CLOUDY    56  40  55 N13       30.41R
Chester        CLOUDY    55  43  62 N9G18     30.42R
Groton         CLOUDY    57  47  69 N7        30.40R
Willimantic    CLOUDY    57  43  59 N13       30.43R

 In RI

CITY           SKY/WX    TMP DP  RH WIND       PRES   REMARKS
Providence     CLOUDY    60  45  57 N13       30.41R
Block Island   CLOUDY    52  51  97 NW8       30.40R
Westerly       CLOUDY    54  53  97 CALM      30.40R

In MA

CITY           SKY/WX    TMP DP  RH WIND       PRES   REMARKS
Boston         CLOUDY    52  28  39 NW17G25   30.44R
Worcester      CLOUDY    50  38  63 NW12      30.43R
Westfield      CLOUDY    48  34  58 NW18      30.47R
Provincetown   CLOUDY    47  30  51 N17       30.42R
Nantucket      CLOUDY    48  48 100 N8        30.41R
$$

ANZ330-335-338-340-345-350-353-355-220700-
Coastal Marine Observations


STATION/POSITION TIME  SKY/WX   TEMP    WIND        PRES    VSBY  WAVE
                                AIR SEA DIR/SP/G                  HT/PER
                 (UTC)          (F)     (DEG/KT/KT) (MB)    (MI)  (FT/S)
NY Harb Entrance 0550            48 42   50/  6/  8 1029.9          3/13
20 S Fire Island 0550            47 43   20/  6/  8 1029.5          3/ 6
15 E Barnegat Li 0530               42                N/A           4/ 5
Hudson Canyon    0550            49 47  270/  8/ 10 1029.0          4/14
Kings Point      0530            56 39   70/  9/ 12 1030.8
Execution Rocks  NOT AVBL
Western LI Sound NOT AVBL
Central LI Sound 0530            45     350/  6/  8   N/A           0
Robbins Reef     0530            58     340/ 10/ 12 1030.6
$$


>>>>>>>>>>>>>>>>>>>>>>>>>>>> KEY <<<<<<<<<<<<<<<<<<<<<<<<<<<
>                                                          <
>     SKY/WX - Sky Condition/Present Weather               <
>     TMP    - Temperature in Fahrenheit                   <
>     DP     - Dew Point in Fahrenheit                     <
>     RH     - Relative Humidity in Percent                <
>     WIND   - Direction (from) and Speed in MPH           <
>     PRES   - Mean Sea Level Pressure (inches of Hg)      <
>     WCI    - Wind Chill Index                            <
>     VSB    - Visibility in Miles                         <
>     HX     - Heat Index                                  <
>     TC     - Temperature in Celsius                      <
>     VRB    - Varibale Wind Direction                     <
>                                                          <
>>>>>>>>>>>>>>>>>>>>>>>>>>>> KEY <<<<<<<<<<<<<<<<<<<<<<<<<<<



USA.gov is the U.S. government's official web portal to all federal, state and local government web resources and services.